Weather History for LHBP - June, 2013

Change the Weather History Date:

Tuesday, June 18, 2013

  Actual Average Record
Temperature  
Mean Temperature 78 °F -  
Max Temperature 93 °F 77 °F 93 °F (2013)
Min Temperature 64 °F 55 °F 44 °F (2000)
Cooling Degree Days 14    
Growing Degree Days 28 (Base 50)    
Moisture  
Dew Point 64 °F    
Average Humidity 61    
Maximum Humidity 100    
Minimum Humidity 32    
Precipitation  
Precipitation 0.00 in - - ()
Sea Level Pressure  
Sea Level Pressure 30.03 in    
Wind  
Wind Speed 4 mph ()    
Max Wind Speed 10 mph    
Max Gust Speed -    
Averages and records for this station are not official NWS values.
T = Trace of Precipitation, MM = Missing Value Source: Averaged Metar Reports

Daily Weather History Graph

Daily Weather History Graph

Search for Another Location

Airport or City:

Trip Planner

Search our weather history database for the weather conditions in past years. The results will help you decide how hot, cold, wet, or windy it might be!

Date:

Astronomy

Jun. 18, 2013 Rise Set
Actual Time 4:45 AM CEST 8:42 PM CEST
Civil Twilight 4:04 AM CEST 9:23 PM CEST
Nautical Twilight 3:09 AM CEST 10:19 PM CEST
Astronomical Twilight 1:41 AM CEST 11:47 PM CEST
Moon 2:49 PM CEST (6/18) 1:04 AM CEST (6/18)
Length of Visible Light 17h 18m
Length of Day
15h 57m
Waxing Gibbous, 68% of the Moon is Illuminated
Jun 18
Waxing Gibbous
Jun 23
Full
Jun 30
Last Quarter
Jul 8
New
Jul 16
First Quarter

Hourly Weather History & Observations

Time (CEST) Temp. Heat Index Dew Point Humidity Pressure Visibility Wind Dir Wind Speed Gust Speed Precip Events Conditions
12:00 AM 69.8 °F - 64.4 °F 83% 30.04 in - Calm Calm - N/A   Clear
12:30 AM 68.0 °F - 64.4 °F 88% 30.04 in - ESE 4.6 mph - N/A   Clear
1:00 AM 68.0 °F - 64.4 °F 88% 30.04 in - Calm Calm - N/A   Clear
1:30 AM 66.2 °F - 64.4 °F 94% 30.04 in - Variable 2.3 mph - N/A   Clear
2:00 AM 68.0 °F - 64.4 °F 88% 30.04 in - North 4.6 mph - N/A   Clear
2:30 AM 68.0 °F - 64.4 °F 88% 30.04 in - North 4.6 mph - N/A   Clear
3:00 AM 68.0 °F - 64.4 °F 88% 30.04 in - North 5.8 mph - N/A   Clear
3:30 AM 66.2 °F - 62.6 °F 88% 30.04 in - Variable 1.2 mph - N/A   Clear
4:00 AM 64.4 °F - 60.8 °F 88% 30.04 in - Variable 3.5 mph - N/A   Clear
4:30 AM 64.4 °F - 62.6 °F 94% 30.04 in - Variable 3.5 mph - N/A   Clear
5:00 AM 68.0 °F - 64.4 °F 88% 30.04 in - North 4.6 mph - N/A   Clear
5:30 AM 64.4 °F - 64.4 °F 100% 30.04 in - North 5.8 mph - N/A   Clear
6:00 AM 69.8 °F - 68.0 °F 94% 30.04 in - Variable 2.3 mph - N/A   Clear
6:30 AM 71.6 °F - 68.0 °F 88% 30.04 in - Variable 3.5 mph - N/A   Clear
7:00 AM 75.2 °F - 69.8 °F 83% 30.06 in - Variable 3.5 mph - N/A   Clear
7:30 AM 77.0 °F - 68.0 °F 74% 30.06 in - Variable 1.2 mph - N/A   Clear
8:00 AM 77.0 °F - 68.0 °F 74% 30.06 in - Variable 2.3 mph - N/A   Clear
8:30 AM 80.6 °F 83.2 °F 68.0 °F 65% 30.06 in - Variable 1.2 mph - N/A   Clear
9:00 AM 82.4 °F 84.6 °F 66.2 °F 58% 30.06 in - Variable 2.3 mph - N/A   Clear
9:30 AM 84.2 °F 85.6 °F 64.4 °F 51% 30.06 in - Variable 2.3 mph - N/A   Clear
10:00 AM 86.0 °F 87.3 °F 64.4 °F 48% 30.06 in - Variable 2.3 mph - N/A   Clear
10:30 AM 87.8 °F 87.6 °F 60.8 °F 40% 30.06 in - South 4.6 mph - N/A   Clear
11:00 AM 87.8 °F 87.6 °F 60.8 °F 40% 30.06 in - South 4.6 mph - N/A   Clear
11:30 AM 89.6 °F 91.1 °F 64.4 °F 43% 30.06 in - SSE 4.6 mph - N/A   Clear
12:00 PM 89.6 °F 88.9 °F 59.0 °F 36% 30.06 in - South 6.9 mph - N/A   Clear
12:30 PM 89.6 °F 88.9 °F 59.0 °F 36% 30.04 in - SE 8.1 mph - N/A   Clear
1:00 PM 93.2 °F 93.3 °F 60.8 °F 34% 30.04 in - SSE 8.1 mph - N/A   Clear
1:30 PM 93.2 °F 93.3 °F 60.8 °F 34% 30.04 in - South 9.2 mph - N/A   Clear
2:00 PM 91.4 °F 91.4 °F 60.8 °F 36% 30.04 in - SSW 8.1 mph - N/A   Clear
2:30 PM 93.2 °F 92.6 °F 59.0 °F 32% 30.04 in - South 9.2 mph - N/A   Clear
3:00 PM 93.2 °F 92.6 °F 59.0 °F 32% 30.04 in - SSW 8.1 mph - N/A   Clear
3:30 PM 91.4 °F 90.7 °F 59.0 °F 34% 30.01 in - South 9.2 mph - N/A   Clear
4:00 PM 93.2 °F 92.6 °F 59.0 °F 32% 30.01 in - SSW 10.4 mph - N/A   Clear
4:30 PM 93.2 °F 93.3 °F 60.8 °F 34% 30.01 in - SSW 9.2 mph - N/A   Clear
5:00 PM 93.2 °F 93.3 °F 60.8 °F 34% 30.01 in - WSW 10.4 mph - N/A   Clear
5:30 PM 93.2 °F 93.3 °F 60.8 °F 34% 30.01 in - SW 6.9 mph - N/A   Clear
6:00 PM 91.4 °F 91.4 °F 60.8 °F 36% 29.98 in - SW 9.2 mph - N/A   Clear
6:30 PM 91.4 °F 91.4 °F 60.8 °F 36% 29.98 in - SSW 9.2 mph - N/A   Clear
7:00 PM 91.4 °F 91.4 °F 60.8 °F 36% 29.98 in - WSW 8.1 mph - N/A   Clear
7:30 PM 89.6 °F 91.1 °F 64.4 °F 43% 30.01 in - SW 8.1 mph - N/A   Clear
8:00 PM 87.8 °F 89.4 °F 64.4 °F 46% 30.01 in - West 5.8 mph - N/A   Clear
8:30 PM 84.2 °F 85.6 °F 64.4 °F 51% 30.01 in - West 5.8 mph - N/A   Clear
9:00 PM 80.6 °F 82.7 °F 66.2 °F 61% 30.01 in - NNW 4.6 mph - N/A   Clear
9:30 PM 78.8 °F - 66.2 °F 65% 30.04 in - Variable 2.3 mph - N/A   Clear
10:00 PM 78.8 °F - 66.2 °F 65% 30.01 in - Variable 1.2 mph - N/A   Clear
10:30 PM 75.2 °F - 68.0 °F 78% 30.04 in - Variable 2.3 mph - N/A   Clear
11:00 PM 75.2 °F - 66.2 °F 73% 30.04 in - Variable 1.2 mph - N/A   Clear
11:30 PM 73.4 °F - 66.2 °F 78% 30.04 in - Variable 1.2 mph - N/A   Clear